When you browse on this site, cookies collect data to enhance your experience and personalize the content and advertising you see.
Visit our Privacy Policy to learn more. By continuing to use the site, you agree to this use of cookies and data.
  • In United Kingdom
  • List of Countries
  • For 7 days
  • Water Temperature
  • Satellite Maps
  • Weather Map
  • Weather Widgets
  • user-avatar
    Login

    Hourly Weather Aberdare

    Today, 23 April, Tuesday

    Time Temperature Precipitation Wind Pressure Humidity
    00:00 +12°C° 0 mm 1 mps 728 mmHg 85%
    01:00 +12°C° 0 mm 1 mps 728 mmHg 83%
    02:00 +12°C° 0 mm 2 mps 727 mmHg 81%
    03:00 +12°C° 0 mm 2 mps 727 mmHg 79%
    04:00 +12°C° 0 mm 2 mps 727 mmHg 81%
    05:00 +11°C° 0 mm 3 mps 727 mmHg 83%
    06:00 +10°C° 0 mm 4 mps 726 mmHg 83%
    07:00 +12°C° 0 mm 4 mps 726 mmHg 79%
    08:00 +14°C° 0 mm 4 mps 726 mmHg 74%
    09:00 +15°C° 0 mm 5 mps 726 mmHg 70%
    10:00 +17°C° 0 mm 4 mps 726 mmHg 68%
    11:00 +19°C° 0 mm 4 mps 726 mmHg 65%
    12:00 +20°C° 0 mm 4 mps 726 mmHg 63%
    13:00 +20°C° 0.8 mm 4 mps 725 mmHg 65%
    14:00 +20°C° 0.8 mm 4 mps 725 mmHg 66%
    15:00 +20°C° 0.8 mm 4 mps 725 mmHg 68%
    16:00 +19°C° 1.4 mm 3 mps 725 mmHg 73%
    17:00 +18°C° 1.4 mm 3 mps 724 mmHg 79%
    18:00 +17°C° 1.4 mm 3 mps 724 mmHg 85%
    19:00 +16°C° 0.6 mm 2 mps 724 mmHg 87%
    20:00 +15°C° 0.6 mm 2 mps 724 mmHg 89%
    21:00 +14°C° 0.6 mm 2 mps 724 mmHg 91%
    22:00 +14°C° 0.2 mm 2 mps 724 mmHg 92%
    23:00 +13°C° 0.2 mm 2 mps 724 mmHg 93%

    Tomorrow, 24 April, Wednesday

    Time Temperature Precipitation Wind Pressure Humidity
    00:00 +12°C° 0.2 mm 2 mps 723 mmHg 94%
    01:00 +12°C° 0 mm 2 mps 723 mmHg 95%
    02:00 +10°C° 0 mm 2 mps 722 mmHg 96%
    03:00 +10°C° 0 mm 2 mps 722 mmHg 96%
    04:00 +9°C° 0.1 mm 2 mps 722 mmHg 96%
    05:00 +9°C° 0.1 mm 2 mps 721 mmHg 96%
    06:00 +9°C° 0.1 mm 3 mps 721 mmHg 95%
    07:00 +10°C° 0.3 mm 3 mps 720 mmHg 94%
    08:00 +11°C° 0.3 mm 4 mps 720 mmHg 93%
    09:00 +11°C° 0.3 mm 4 mps 720 mmHg 93%
    10:00 +9°C° 2.5 mm 5 mps 720 mmHg 93%
    11:00 +8°C° 2.5 mm 5 mps 720 mmHg 93%
    12:00 +8°C° 2.5 mm 6 mps 720 mmHg 94%
    13:00 +8°C° 0.1 mm 6 mps 721 mmHg 91%
    14:00 +9°C° 0.1 mm 6 mps 721 mmHg 89%
    15:00 +9°C° 0.1 mm 6 mps 722 mmHg 87%
    16:00 +9°C° 0.1 mm 5 mps 722 mmHg 86%
    17:00 +9°C° 0.1 mm 5 mps 723 mmHg 85%
    18:00 +10°C° 0.1 mm 4 mps 723 mmHg 84%
    19:00 +8°C° 0 mm 4 mps 723 mmHg 87%
    20:00 +8°C° 0 mm 3 mps 723 mmHg 89%
    21:00 +7°C° 0 mm 3 mps 724 mmHg 91%
    22:00 +5°C° 0 mm 4 mps 723 mmHg 92%
    23:00 +5°C° 0 mm 4 mps 723 mmHg 93%

    Day after tomorrow, 25 April, Thursday

    Time Temperature Precipitation Wind Pressure Humidity
    00:00 +5°C° 0 mm 4 mps 723 mmHg 95%
    01:00 +6°C° 0.5 mm 5 mps 722 mmHg 95%
    02:00 +5°C° 0.5 mm 6 mps 722 mmHg 95%
    03:00 +5°C° 0.5 mm 7 mps 722 mmHg 95%
    04:00 +5°C° 0.2 mm 7 mps 722 mmHg 94%
    05:00 +5°C° 0.2 mm 6 mps 722 mmHg 92%
    06:00 +6°C° 0.2 mm 5 mps 722 mmHg 90%
    07:00 +7°C° 0.1 mm 6 mps 723 mmHg 87%
    08:00 +8°C° 0.1 mm 6 mps 724 mmHg 83%
    09:00 +8°C° 0.1 mm 6 mps 725 mmHg 79%
    10:00 +9°C° 0.4 mm 6 mps 725 mmHg 77%
    11:00 +9°C° 0.4 mm 6 mps 726 mmHg 75%
    12:00 +10°C° 0.4 mm 6 mps 727 mmHg 73%
    13:00 +10°C° 0.5 mm 6 mps 727 mmHg 73%
    14:00 +9°C° 0.5 mm 6 mps 727 mmHg 73%
    15:00 +9°C° 0.5 mm 6 mps 728 mmHg 73%
    16:00 +9°C° 0.2 mm 5 mps 728 mmHg 76%
    17:00 +10°C° 0.2 mm 4 mps 728 mmHg 78%
    18:00 +8°C° 0.2 mm 4 mps 728 mmHg 80%
    19:00 +8°C° 0.1 mm 3 mps 728 mmHg 84%
    20:00 +7°C° 0.1 mm 3 mps 729 mmHg 88%
    21:00 +5°C° 0.1 mm 3 mps 729 mmHg 91%
    22:00 +4°C° 0 mm 3 mps 729 mmHg 92%
    23:00 +5°C° 0 mm 2 mps 730 mmHg 93%

    26 April, Friday

    Time Temperature Precipitation Wind Pressure Humidity
    00:00 +4°C° 0 mm 2 mps 730 mmHg 94%
    01:00 +4°C° 0 mm 2 mps 730 mmHg 94%
    02:00 +4°C° 0 mm 2 mps 730 mmHg 95%
    03:00 +5°C° 0 mm 1 mps 730 mmHg 95%
    04:00 +5°C° 0 mm 1 mps 730 mmHg 95%
    05:00 +5°C° 0 mm 1 mps 730 mmHg 95%
    06:00 +5°C° 0 mm 1 mps 730 mmHg 95%
    07:00 +7°C° 0 mm 1 mps 731 mmHg 88%
    08:00 +9°C° 0 mm 1 mps 731 mmHg 81%
    09:00 +11°C° 0 mm 1 mps 732 mmHg 74%
    10:00 +12°C° 0 mm 2 mps 732 mmHg 71%
    11:00 +12°C° 0 mm 3 mps 733 mmHg 67%
    12:00 +12°C° 0 mm 5 mps 733 mmHg 64%
    13:00 +12°C° 0.1 mm 5 mps 733 mmHg 67%
    14:00 +11°C° 0.1 mm 6 mps 734 mmHg 70%
    15:00 +10°C° 0.1 mm 7 mps 734 mmHg 73%
    16:00 +9°C° 0.2 mm 7 mps 735 mmHg 77%
    17:00 +8°C° 0.2 mm 7 mps 735 mmHg 80%
    18:00 +8°C° 0.2 mm 7 mps 735 mmHg 84%
    19:00 +5°C° 0 mm 6 mps 736 mmHg 85%
    20:00 +5°C° 0 mm 5 mps 736 mmHg 86%
    21:00 +4°C° 0 mm 4 mps 737 mmHg 86%
    22:00 +5°C° 0.3 mm 4 mps 736 mmHg 89%
    23:00 +5°C° 0.3 mm 4 mps 736 mmHg 91%

    27 April, Saturday

    Time Temperature Precipitation Wind Pressure Humidity
    00:00 +5°C° 0.3 mm 4 mps 735 mmHg 93%
    01:00 +6°C° 0.8 mm 4 mps 735 mmHg 93%
    02:00 +6°C° 0.8 mm 5 mps 734 mmHg 92%
    03:00 +7°C° 0.8 mm 5 mps 734 mmHg 91%
    04:00 +5°C° 0 mm 6 mps 735 mmHg 91%
    05:00 +4°C° 0 mm 7 mps 736 mmHg 91%
    06:00 +2°C° 0 mm 8 mps 737 mmHg 91%
    07:00 +4°C° 0 mm 8 mps 738 mmHg 86%
    08:00 +5°C° 0 mm 8 mps 739 mmHg 81%
    09:00 +6°C° 0 mm 8 mps 741 mmHg 76%
    10:00 +7°C° 0 mm 8 mps 742 mmHg 72%
    11:00 +7°C° 0 mm 8 mps 743 mmHg 67%
    12:00 +9°C° 0 mm 7 mps 743 mmHg 63%
    13:00 +9°C° 0 mm 7 mps 744 mmHg 61%
    14:00 +9°C° 0 mm 7 mps 744 mmHg 60%
    15:00 +9°C° 0 mm 6 mps 745 mmHg 59%
    16:00 +8°C° 0 mm 6 mps 745 mmHg 63%
    17:00 +8°C° 0 mm 5 mps 746 mmHg 67%
    18:00 +7°C° 0 mm 5 mps 746 mmHg 71%
    19:00 +6°C° 0 mm 4 mps 746 mmHg 76%
    20:00 +5°C° 0 mm 3 mps 747 mmHg 81%
    21:00 +5°C° 0 mm 3 mps 747 mmHg 85%
    22:00 +5°C° 0 mm 3 mps 747 mmHg 85%
    23:00 +5°C° 0 mm 4 mps 747 mmHg 84%

    28 April, Sunday

    Time Temperature Precipitation Wind Pressure Humidity
    00:00 +6°C° 0 mm 4 mps 747 mmHg 84%
    01:00 +6°C° 0 mm 4 mps 747 mmHg 86%
    02:00 +6°C° 0 mm 5 mps 746 mmHg 89%
    03:00 +6°C° 0 mm 5 mps 746 mmHg 92%
    04:00 +7°C° 0 mm 5 mps 745 mmHg 92%
    05:00 +7°C° 0 mm 5 mps 745 mmHg 93%
    06:00 +7°C° 0 mm 5 mps 745 mmHg 93%
    07:00 +8°C° 0.1 mm 5 mps 745 mmHg 94%
    08:00 +8°C° 0.1 mm 5 mps 744 mmHg 94%
    09:00 +8°C° 0.1 mm 5 mps 744 mmHg 94%
    10:00 +9°C° 0.2 mm 5 mps 744 mmHg 94%
    11:00 +9°C° 0.2 mm 6 mps 744 mmHg 94%
    12:00 +9°C° 0.2 mm 6 mps 743 mmHg 94%
    13:00 +9°C° 0.2 mm 6 mps 743 mmHg 94%
    14:00 +10°C° 0.2 mm 6 mps 742 mmHg 94%
    15:00 +10°C° 0.2 mm 6 mps 742 mmHg 94%
    16:00 +9°C° 0.4 mm 6 mps 741 mmHg 95%
    17:00 +9°C° 0.4 mm 6 mps 741 mmHg 95%
    18:00 +9°C° 0.4 mm 6 mps 740 mmHg 95%
    19:00 +9°C° 0.1 mm 6 mps 739 mmHg 95%
    20:00 +9°C° 0.1 mm 7 mps 739 mmHg 95%
    21:00 +9°C° 0.1 mm 7 mps 739 mmHg 95%
    22:00 +8°C° 1.2 mm 7 mps 738 mmHg 95%
    23:00 +8°C° 1.2 mm 6 mps 738 mmHg 95%
    Show more